Baton Rouge, LA

6:47 AM CDT on August 28, 2016 (GMT -0500)
Baton Rouge Metro-Ryan

Weather History for KBTR - January, 2013

Change the Weather History Date:

Friday, January 25, 2013

  Actual Average Record
Temperature  
Mean Temperature 66 °F 52 °F  
Max Temperature 76 °F 63 °F 85 °F (1909)
Min Temperature 55 °F 41 °F 17 °F (1963)
Degree Days  
Heating Degree Days 0 13  
Month to date heating degree days 314 348  
Since 1 July heating degree days 891 964  
Cooling Degree Days 1 0  
Month to date cooling degree days 12 3  
Year to date cooling degree days 12 3  
Growing Degree Days 15 (Base 50)    
Moisture  
Dew Point 56 °F    
Average Humidity 72    
Maximum Humidity 93    
Minimum Humidity 50    
Precipitation  
Precipitation 0.00 in 0.18 in 1.96 in (1934)
Month to date precipitation 13.82 4.58  
Year to date precipitation 13.82 4.58  
Snow  
Snow 0.00 in - - ()
Month to date snowfall 0.0  
Since 1 July snowfall 0.0  
Snow Depth 0.00 in    
Sea Level Pressure  
Sea Level Pressure 30.19 in    
Wind  
Wind Speed 9 mph (SSW)    
Max Wind Speed 18 mph    
Max Gust Speed 23 mph    
Visibility 10 miles    
Events      
T = Trace of Precipitation, MM = Missing Value Source: NWS Daily Summary

Daily Weather History Graph

Daily Weather History Graph

Search for Another Location

Airport or City:

Trip Planner

Search our weather history database for the weather conditions in past years. The results will help you decide how hot, cold, wet, or windy it might be!

Date:

Astronomy

Jan. 25, 2013 Rise Set
Actual Time 6:59 AM CST 5:35 PM CST
Civil Twilight 6:33 AM CST 6:00 PM CST
Nautical Twilight 6:04 AM CST 6:29 PM CST
Astronomical Twilight 5:36 AM CST 6:58 PM CST
Moon 4:32 PM CST (1/25) 5:38 AM CST (1/25)
Length of Visible Light 11h 26m
Length of Day
10h 35m
Waxing Gibbous, 98% of the Moon is Illuminated
Jan 25
Waxing Gibbous
Jan 26
Full
Feb 3
Last Quarter
Feb 10
New
Feb 17
First Quarter

Hourly Weather History & Observations

Time (CST) Temp. Dew Point Humidity Pressure Visibility Wind Dir Wind Speed Gust Speed Precip Events Conditions
12:53 AM 57.0 °F 54.0 °F 89% 30.23 in 10.0 mi South 6.9 mph - N/A   Clear
1:53 AM 55.9 °F 53.1 °F 90% 30.22 in 10.0 mi South 5.8 mph - N/A   Clear
2:53 AM 55.0 °F 53.1 °F 93% 30.21 in 9.0 mi South 4.6 mph - N/A   Clear
3:53 AM 55.9 °F 54.0 °F 93% 30.22 in 10.0 mi SSE 4.6 mph - N/A   Overcast
4:53 AM 57.9 °F 54.0 °F 87% 30.22 in 10.0 mi South 9.2 mph - N/A   Overcast
5:53 AM 57.0 °F 53.1 °F 87% 30.20 in 10.0 mi South 9.2 mph - N/A   Clear
6:53 AM 57.0 °F 53.1 °F 87% 30.22 in 10.0 mi South 8.1 mph - N/A   Clear
7:53 AM 59.0 °F 54.0 °F 83% 30.23 in 10.0 mi SSW 5.8 mph - N/A   Clear
8:53 AM 64.0 °F 55.0 °F 73% 30.23 in 10.0 mi South 15.0 mph - N/A   Clear
9:53 AM 69.1 °F 55.9 °F 63% 30.25 in 10.0 mi SSW 13.8 mph 19.6 mph N/A   Clear
10:53 AM 71.1 °F 57.0 °F 61% 30.23 in 10.0 mi SSW 13.8 mph - N/A   Clear
11:53 AM 73.0 °F 55.9 °F 55% 30.21 in 10.0 mi SW 15.0 mph - N/A   Clear
12:53 PM 75.0 °F 55.9 °F 51% 30.17 in 10.0 mi SW 12.7 mph 20.7 mph N/A   Clear
1:53 PM 75.0 °F 55.9 °F 51% 30.16 in 10.0 mi SW 10.4 mph 19.6 mph N/A   Scattered Clouds
2:53 PM 73.9 °F 55.9 °F 53% 30.14 in 10.0 mi WSW 10.4 mph - N/A   Partly Cloudy
3:53 PM 73.9 °F 57.0 °F 55% 30.14 in 10.0 mi South 11.5 mph 20.7 mph N/A   Partly Cloudy
4:53 PM 71.1 °F 57.0 °F 61% 30.13 in 10.0 mi SSW 13.8 mph - N/A   Clear
5:53 PM 68.0 °F 57.0 °F 68% 30.14 in 10.0 mi SSW 13.8 mph - N/A   Clear
6:53 PM 66.0 °F 57.9 °F 75% 30.15 in 10.0 mi South 11.5 mph - N/A   Clear
7:53 PM 64.9 °F 59.0 °F 81% 30.16 in 10.0 mi SW 10.4 mph - N/A   Clear
8:53 PM 61.0 °F 57.9 °F 90% 30.19 in 10.0 mi Calm Calm - N/A   Clear
9:53 PM 57.9 °F 55.9 °F 93% 30.19 in 10.0 mi Calm Calm - N/A   Partly Cloudy
10:53 PM 59.0 °F 57.0 °F 93% 30.19 in 10.0 mi SSW 3.5 mph - N/A   Partly Cloudy
11:53 PM 60.1 °F 57.9 °F 93% 30.19 in 10.0 mi SW 5.8 mph - N/A   Partly Cloudy